Weather History for KDAY - March, 2014

Change the Weather History Date:

Thursday, March 27, 2014

  Actual Average Record
Temperature  
Mean Temperature 43 °F 44 °F  
Max Temperature 56 °F 54 °F 83 °F (1910)
Min Temperature 30 °F 35 °F 11 °F (1955)
Degree Days  
Heating Degree Days 22 21  
Month to date heating degree days 791 686  
Since 1 July heating degree days 5390 4961  
Cooling Degree Days 0 0  
Month to date cooling degree days 0 0  
Year to date cooling degree days 0 0  
Moisture  
Dew Point 22 °F    
Average Humidity 42    
Maximum Humidity 56    
Minimum Humidity 27    
Precipitation  
Precipitation 0.03 in 0.12 in 1.90 in (1913)
Month to date precipitation 1.30 2.83  
Year to date precipitation 6.28 7.78  
Snow  
Snow T in 0.10 in 1.20 in (1930)
Month to date snowfall 5.8 3.2  
Since 1 July snowfall 51.2 22.5  
Snow Depth 0.00 in    
Sea Level Pressure  
Sea Level Pressure 30.02 in    
Wind  
Wind Speed 15 mph (South)    
Max Wind Speed 26 mph    
Max Gust Speed 35 mph    
Visibility 10 miles    
Events Rain , Thunderstorm    
T = Trace of Precipitation, MM = Missing Value Source: NWS Daily Summary

Daily Weather History Graph

Daily Weather History Graph

Search for Another Location

Airport or City:

Trip Planner

Search our weather history database for the weather conditions in past years. The results will help you decide how hot, cold, wet, or windy it might be!

Date:

Astronomy

Mar. 27, 2014 Rise Set
Actual Time 7:28 AM EDT 7:56 PM EDT
Civil Twilight 7:01 AM EDT 8:23 PM EDT
Nautical Twilight 6:30 AM EDT 8:55 PM EDT
Astronomical Twilight 5:57 AM EDT 9:27 PM EDT
Moon 5:19 AM EDT (3/27) 4:42 PM EDT (3/27)
Length of Visible Light 13h 21m
Length of Day
12h 27m
Waning Crescent, 13% of the Moon is Illuminated
Mar 27
Waning Crescent
Mar 30
New
Apr 7
First Quarter
Apr 15
Full
Apr 22
Last Quarter

Hourly Weather History & Observations

Time (EDT) Temp. Windchill Dew Point Humidity Pressure Visibility Wind Dir Wind Speed Gust Speed Precip Events Conditions
12:56 AM 30.0 °F 22.4 °F 15.1 °F 54% 30.26 in 10.0 mi South 8.1 mph - N/A   Clear
1:56 AM 30.0 °F 21.7 °F 16.0 °F 56% 30.23 in 10.0 mi SSE 9.2 mph - N/A   Clear
2:56 AM 32.0 °F 22.5 °F 17.1 °F 54% 30.20 in 10.0 mi South 12.7 mph - N/A   Mostly Cloudy
3:56 AM 32.0 °F 24.8 °F 16.0 °F 52% 30.18 in 10.0 mi South 8.1 mph - N/A   Scattered Clouds
4:56 AM 34.0 °F 26.0 °F 16.0 °F 48% 30.18 in 10.0 mi South 10.4 mph - N/A   Mostly Cloudy
5:56 AM 34.0 °F 24.6 °F 16.0 °F 48% 30.17 in 10.0 mi South 13.8 mph - N/A   Overcast
6:56 AM 35.1 °F 27.4 °F 17.1 °F 48% 30.16 in 10.0 mi SSE 10.4 mph - N/A   Overcast
7:56 AM 36.0 °F 28.0 °F 17.1 °F 46% 30.15 in 10.0 mi South 11.5 mph - 0.00 in Rain Light Rain
8:19 AM 35.6 °F 27.1 °F 19.4 °F 52% 30.13 in 10.0 mi South 12.7 mph - 0.00 in   Light Ice Pellets
8:28 AM 35.6 °F 27.1 °F 19.4 °F 52% 30.12 in 10.0 mi South 12.7 mph - 0.00 in Rain Light Rain
8:56 AM 37.0 °F 29.3 °F 19.9 °F 50% 30.15 in 10.0 mi South 11.5 mph - 0.00 in   Overcast
9:56 AM 37.0 °F 29.8 °F 21.0 °F 52% 30.12 in 10.0 mi South 10.4 mph - 0.00 in   Overcast
10:56 AM 41.0 °F 33.9 °F 19.9 °F 43% 30.11 in 10.0 mi South 12.7 mph - 0.00 in   Overcast
11:56 AM 42.1 °F 34.5 °F 21.0 °F 43% 30.08 in 10.0 mi South 15.0 mph 21.9 mph 0.00 in   Overcast
12:56 PM 45.0 °F 38.2 °F 19.0 °F 36% 30.04 in 10.0 mi South 15.0 mph 26.5 mph 0.00 in   Overcast
1:56 PM 46.9 °F - 19.9 °F 34% 30.01 in 10.0 mi South 13.8 mph 20.7 mph N/A   Overcast
2:56 PM 48.0 °F - 21.0 °F 34% 29.98 in 10.0 mi South 17.3 mph 25.3 mph N/A   Overcast
3:56 PM 48.9 °F - 23.0 °F 36% 29.94 in 10.0 mi South 13.8 mph - 0.00 in Rain Light Rain
4:56 PM 53.1 °F - 25.0 °F 34% 29.90 in 10.0 mi South 17.3 mph 27.6 mph 0.00 in   Overcast
5:56 PM 55.9 °F - 23.0 °F 28% 29.87 in 10.0 mi South 19.6 mph 28.8 mph N/A   Overcast
6:56 PM 55.9 °F - 26.1 °F 32% 29.83 in 10.0 mi South 20.7 mph 29.9 mph 0.00 in   Overcast
7:56 PM 55.9 °F - 25.0 °F 30% 29.79 in 10.0 mi South 24.2 mph 29.9 mph N/A   Overcast
8:56 PM 55.9 °F - 26.1 °F 32% 29.78 in 10.0 mi South 19.6 mph 31.1 mph 0.00 in Rain Light Rain
9:31 PM 51.8 °F - 33.8 °F 50% 29.84 in 7.0 mi SW 16.1 mph 27.6 mph 0.01 in Rain , Thunderstorm Light Thunderstorms and Rain
9:47 PM 51.8 °F - 35.6 °F 54% 29.83 in 9.0 mi SSW 15.0 mph - 0.02 in Rain Light Rain
9:56 PM 50.0 °F - 36.0 °F 59% 29.84 in 10.0 mi SSW 18.4 mph 24.2 mph 0.03 in Rain Light Rain
10:56 PM 48.0 °F - 36.0 °F 63% 29.79 in 10.0 mi SSE 10.4 mph - 0.00 in   Mostly Cloudy
11:56 PM 54.0 °F - 28.0 °F 37% 29.79 in 10.0 mi South 16.1 mph - 0.00 in Rain Light Rain